TimeMDT,TemperatureF,Dew PointF,Humidity,Sea Level PressureIn,VisibilityMPH,Wind Direction,Wind SpeedMPH,Gust SpeedMPH,PrecipitationIn,Events,Conditions,WindDirDegrees,DateUTC
12:53 AM,50.0,7.0,18,29.78,10.0,Variable,4.6,-,N/A,,Clear,0,2014-04-25 06:53:00
1:53 AM,48.0,9.0,21,29.75,10.0,Calm,Calm,-,N/A,,Clear,0,2014-04-25 07:53:00
2:53 AM,48.9,7.0,18,29.73,10.0,South,6.9,-,N/A,,Clear,190,2014-04-25 08:53:00
3:53 AM,48.9,6.1,18,29.73,10.0,South,6.9,-,N/A,,Clear,190,2014-04-25 09:53:00
4:53 AM,50.0,6.1,17,29.70,10.0,SSW,5.8,-,N/A,,Clear,200,2014-04-25 10:53:00
5:53 AM,52.0,8.1,17,29.68,10.0,South,10.4,-,N/A,,Clear,180,2014-04-25 11:53:00
6:53 AM,50.0,7.0,18,29.68,10.0,SSW,11.5,-,N/A,,Clear,200,2014-04-25 12:53:00
7:53 AM,55.0,8.1,15,29.68,10.0,SSW,13.8,24.2,N/A,,Clear,210,2014-04-25 13:53:00
8:53 AM,59.0,10.9,15,29.68,10.0,South,24.2,33.4,N/A,,Clear,180,2014-04-25 14:53:00
9:53 AM,59.0,12.9,16,29.66,10.0,SSW,23.0,35.7,N/A,,Clear,200,2014-04-25 15:53:00
10:53 AM,62.1,12.9,15,29.66,10.0,South,25.3,33.4,N/A,,Clear,190,2014-04-25 16:53:00
11:53 AM,64.0,15.1,15,29.66,10.0,South,23.0,36.8,N/A,,Clear,180,2014-04-25 17:53:00
12:53 PM,66.0,19.0,17,29.61,10.0,South,27.6,42.6,N/A,,Clear,180,2014-04-25 18:53:00
1:53 PM,68.0,18.0,15,29.56,10.0,South,29.9,44.9,N/A,,Clear,190,2014-04-25 19:53:00
2:53 PM,68.0,21.9,17,29.54,10.0,SSW,31.1,43.7,N/A,,Clear,210,2014-04-25 20:53:00
3:53 PM,66.0,21.0,18,29.53,10.0,SSW,24.2,46.0,N/A,,Clear,200,2014-04-25 21:53:00
4:53 PM,66.0,19.0,17,29.51,10.0,SW,28.8,50.6,N/A,,Partly Cloudy,220,2014-04-25 22:53:00
5:53 PM,62.1,23.0,22,29.53,10.0,SW,26.5,43.7,N/A,,Partly Cloudy,220,2014-04-25 23:53:00
6:53 PM,60.1,24.1,25,29.53,10.0,SSW,21.9,38.0,N/A,,Scattered Clouds,210,2014-04-26 00:53:00
7:53 PM,57.9,25.0,28,29.52,10.0,SSW,21.9,29.9,N/A,,Clear,200,2014-04-26 01:53:00
8:53 PM,57.0,25.0,29,29.51,10.0,SSW,13.8,24.2,N/A,,Scattered Clouds,210,2014-04-26 02:53:00
9:53 PM,55.0,25.0,31,29.51,10.0,SSW,13.8,-,N/A,,Clear,210,2014-04-26 03:53:00
10:53 PM,55.9,26.1,32,29.47,10.0,South,29.9,43.7,N/A,,Clear,180,2014-04-26 04:53:00
11:53 PM,54.0,28.0,37,29.45,10.0,South,11.5,-,0.00,,Overcast,190,2014-04-26 05:53:00